Погода в Салтановке

Россия / Брянская область     52°46′25″N   34°17′35″E
темп.,
°C
ветер,
м/с
пор.,
м/с
влажн.,
%
обл.,
%
осадки,
мм/ч
давл.,
гПа
погр.,
м
31 июля, сб
сб3100:00+17зюз22850 0.0 100926
03:00+16зюз23835 0.0 100944
06:00+18ююз2668100 0.0 1008136
09:00+23зюз48614 0.0 1009514
12:00+27зюз694812 0.0 10092129
15:00+28з694173 0.0 10092212
18:00+26зсз475023 0.0 10091019
21:00+20юв116833 0.0 101011
1 августа, вс
вс100:00+19ююв226995 0.0 101122
03:00+18ююв246984 0.0 101160
06:00+18ююв387867 0.0 1011140
09:00+24ююз365746 0.0 1011407
12:00+29юз46425 0.0 10111832
15:00+31юз46355 0.0 10102727
18:00+30зюз134916 0.0 1009407
21:00+21ссв2278100 0.0 100934
2 августа, пн
пн200:00+20ссз1187100 0.4 101017
03:00+18юв1187100 0.4 100911
06:00+19ююз268593 0.0 1008160
09:00+24ю476679 0.0 1007515
12:00+29ююз5752100 0.0 10061366
15:00+28юз4952100 0.0 1005897
18:00+29ю49521 0.0 10031036
21:00+22зюз9168276 1.1 1005886
3 августа, вт
вт300:00+18ююз4992100 0.3 1006410
03:00+16зюз51195100 0.3 1006651
06:00+16з5109182 0.1 1008631
09:00+17зсз588361 0.1 1010679
12:00+22зсз465981 0.3 10111600
15:00+23зсз465871 1.6 10111680
18:00+20зсз257791 1.3 1012196
21:00+17зсз238763 1.9 101352
4 августа, ср
ср400:00+14зюз22910 0.0 101412
03:00+13з12935 0.0 101512
06:00+14з1291100 0.0 101542
09:00+17ссз128120 0.0 1016178
12:00+23зсз345010 0.0 10161548
15:00+22зсз2453100 0.0 1016590
18:00+21сз116499 0.0 101661
21:00+17ю00739 0.0 101711